Time,TemperatureF,DewpointF,PressureIn,WindDirection,WindDirectionDegrees,WindSpeedMPH,WindSpeedGustMPH,Humidity,HourlyPrecipIn,Conditions,Clouds,dailyrainin,SoftwareType,DateUTC
2013-09-01 00:00:00,78.0,70.2,29.76,SW,234,0.0,1.0,77,0.00,,,0.00,VWS V14.01,2013-09-01 05:00:00,
2013-09-01 00:02:00,78.0,70.2,29.76,SW,234,0.0,1.0,77,0.00,,,0.00,VWS V14.01,2013-09-01 05:02:00,
2013-09-01 00:07:00,78.0,69.8,29.76,SW,234,0.0,0.0,76,0.00,,,0.00,VWS V14.01,2013-09-01 05:07:00,
2013-09-01 00:12:00,78.1,69.9,29.76,SW,234,0.0,0.0,76,0.00,,,0.00,VWS V14.01,2013-09-01 05:12:00,
2013-09-01 00:17:00,78.2,70.0,29.75,SW,234,0.0,0.0,76,0.00,,,0.00,VWS V14.01,2013-09-01 05:17:00,
2013-09-01 00:22:00,78.2,70.0,29.75,SW,234,0.0,0.0,76,0.00,,,0.00,VWS V14.01,2013-09-01 05:22:00,
2013-09-01 00:27:00,78.2,70.0,29.75,SW,234,0.0,0.0,76,0.00,,,0.00,VWS V14.01,2013-09-01 05:27:00,
2013-09-01 00:30:00,78.2,69.6,29.75,SW,234,0.0,0.0,75,0.00,,,0.00,VWS V14.01,2013-09-01 05:30:00,
2013-09-01 00:32:00,78.2,69.6,29.75,SW,234,0.0,0.0,75,0.00,,,0.00,VWS V14.01,2013-09-01 05:32:00,
2013-09-01 00:37:00,78.2,69.6,29.75,SW,234,0.0,0.0,75,0.00,,,0.00,VWS V14.01,2013-09-01 05:37:00,
2013-09-01 00:42:00,78.2,69.6,29.76,SW,234,0.0,0.0,75,0.00,,,0.00,VWS V14.01,2013-09-01 05:42:00,
2013-09-01 00:47:00,78.1,69.1,29.76,SW,234,0.0,0.0,74,0.00,,,0.00,VWS V14.01,2013-09-01 05:47:00,
2013-09-01 00:52:00,78.0,68.7,29.76,SW,234,0.0,0.0,73,0.00,,,0.00,VWS V14.01,2013-09-01 05:52:00,
2013-09-01 00:57:00,78.0,69.1,29.76,SW,234,0.0,0.0,74,0.00,,,0.00,VWS V14.01,2013-09-01 05:57:00,
2013-09-01 01:00:00,78.0,69.1,29.76,SW,234,0.0,0.0,74,0.00,,,0.00,VWS V14.01,2013-09-01 06:00:00,
2013-09-01 01:02:00,78.0,69.1,29.76,SW,234,0.0,0.0,74,0.00,,,0.00,VWS V14.01,2013-09-01 06:02:00,
2013-09-01 01:07:00,78.0,68.7,29.76,SW,234,0.0,0.0,73,0.00,,,0.00,VWS V14.01,2013-09-01 06:07:00,
2013-09-01 01:12:00,77.9,68.9,29.76,SW,234,0.0,0.0,74,0.00,,,0.00,VWS V14.01,2013-09-01 06:12:00,
2013-09-01 01:17:00,77.9,68.9,29.76,SW,234,0.0,0.0,74,0.00,,,0.00,VWS V14.01,2013-09-01 06:17:00,
2013-09-01 01:22:00,77.8,68.9,29.77,SW,234,0.0,0.0,74,0.00,,,0.00,VWS V14.01,2013-09-01 06:22:00,
2013-09-01 01:27:00,77.7,68.8,29.77,SW,234,0.0,0.0,74,0.00,,,0.00,VWS V14.01,2013-09-01 06:27:00,
2013-09-01 01:30:00,77.6,68.7,29.77,SW,234,0.0,1.0,74,0.00,,,0.00,VWS V14.01,2013-09-01 06:30:00,
2013-09-01 01:32:00,77.6,68.7,29.77,SW,234,0.0,1.0,74,0.00,,,0.00,VWS V14.01,2013-09-01 06:32:00,
2013-09-01 01:37:00,77.5,68.6,29.77,SW,234,0.0,0.0,74,0.00,,,0.00,VWS V14.01,2013-09-01 06:37:00,
2013-09-01 01:42:00,77.4,68.5,29.77,SW,234,0.0,0.0,74,0.00,,,0.00,VWS V14.01,2013-09-01 06:42:00,
2013-09-01 01:47:00,77.3,68.8,29.77,SW,234,0.0,0.0,75,0.00,,,0.00,VWS V14.01,2013-09-01 06:47:00,
2013-09-01 01:52:00,77.1,68.2,29.77,SW,234,0.0,0.0,74,0.00,,,0.00,VWS V14.01,2013-09-01 06:52:00,
2013-09-01 01:57:00,77.1,68.2,29.77,SW,234,0.0,0.0,74,0.00,,,0.00,VWS V14.01,2013-09-01 06:57:00,
2013-09-01 02:00:00,77.2,68.3,29.77,WSW,242,0.0,2.0,74,0.00,,,0.00,VWS V14.01,2013-09-01 07:00:00,
2013-09-01 02:02:00,77.2,68.3,29.77,WSW,242,0.0,0.0,74,0.00,,,0.00,VWS V14.01,2013-09-01 07:02:00,
2013-09-01 02:07:00,77.4,68.1,29.77,WSW,242,0.0,0.0,73,0.00,,,0.00,VWS V14.01,2013-09-01 07:07:00,
2013-09-01 02:12:00,77.6,67.9,29.77,SE,140,0.0,2.0,72,0.00,,,0.00,VWS V14.01,2013-09-01 07:12:00,
2013-09-01 02:17:00,77.8,68.1,29.77,SSW,205,0.0,2.0,72,0.00,,,0.00,VWS V14.01,2013-09-01 07:17:00,
2013-09-01 02:22:00,78.1,67.9,29.77,SSW,197,0.0,2.0,71,0.00,,,0.00,VWS V14.01,2013-09-01 07:22:00,
2013-09-01 02:27:00,78.3,67.7,29.77,South,182,0.0,2.0,70,0.00,,,0.00,VWS V14.01,2013-09-01 07:27:00,
2013-09-01 02:30:00,78.5,67.9,29.77,South,182,0.0,2.0,70,0.00,,,0.00,VWS V14.01,2013-09-01 07:30:00,
2013-09-01 02:32:00,78.6,68.0,29.77,South,182,0.0,0.0,70,0.00,,,0.00,VWS V14.01,2013-09-01 07:32:00,
2013-09-01 02:37:00,78.7,68.1,29.77,South,182,0.0,0.0,70,0.00,,,0.00,VWS V14.01,2013-09-01 07:37:00,
2013-09-01 02:42:00,78.7,68.1,29.77,South,182,0.0,1.0,70,0.00,,,0.00,VWS V14.01,2013-09-01 07:42:00,
2013-09-01 02:47:00,78.8,68.2,29.77,South,182,0.0,1.0,70,0.00,,,0.00,VWS V14.01,2013-09-01 07:47:00,
2013-09-01 02:52:00,78.8,68.2,29.77,South,182,0.0,1.0,70,0.00,,,0.00,VWS V14.01,2013-09-01 07:52:00,
2013-09-01 02:57:00,78.8,68.2,29.77,South,182,0.0,1.0,70,0.00,,,0.00,VWS V14.01,2013-09-01 07:57:00,
2013-09-01 03:00:00,78.7,68.1,29.77,South,182,0.0,1.0,70,0.00,,,0.00,VWS V14.01,2013-09-01 08:00:00,
2013-09-01 03:02:00,78.7,68.1,29.77,South,182,0.0,0.0,70,0.00,,,0.00,VWS V14.01,2013-09-01 08:02:00,
2013-09-01 03:07:00,78.7,68.1,29.77,South,182,0.0,1.0,70,0.00,,,0.00,VWS V14.01,2013-09-01 08:07:00,
2013-09-01 03:12:00,78.6,68.4,29.77,South,182,0.0,1.0,71,0.00,,,0.00,VWS V14.01,2013-09-01 08:12:00,
2013-09-01 03:17:00,78.4,68.6,29.77,South,182,0.0,1.0,72,0.00,,,0.00,VWS V14.01,2013-09-01 08:17:00,
2013-09-01 03:22:00,78.2,68.4,29.77,South,182,0.0,1.0,72,0.00,,,0.00,VWS V14.01,2013-09-01 08:22:00,
2013-09-01 03:27:00,78.0,68.7,29.77,South,182,0.0,1.0,73,0.00,,,0.00,VWS V14.01,2013-09-01 08:27:00,
2013-09-01 03:30:00,77.8,68.5,29.77,South,182,0.0,1.0,73,0.00,,,0.00,VWS V14.01,2013-09-01 08:30:00,
2013-09-01 03:32:00,77.8,68.5,29.77,South,182,0.0,0.0,73,0.00,,,0.00,VWS V14.01,2013-09-01 08:32:00,
2013-09-01 03:37:00,77.4,68.5,29.77,South,182,0.0,0.0,74,0.00,,,0.00,VWS V14.01,2013-09-01 08:37:00,
2013-09-01 03:42:00,77.1,68.2,29.77,South,182,0.0,0.0,74,0.00,,,0.00,VWS V14.01,2013-09-01 08:42:00,
2013-09-01 03:47:00,76.8,68.3,29.77,South,182,0.0,0.0,75,0.00,,,0.00,VWS V14.01,2013-09-01 08:47:00,
2013-09-01 03:52:00,76.5,68.4,29.77,South,182,0.0,0.0,76,0.00,,,0.00,VWS V14.01,2013-09-01 08:52:00,
2013-09-01 03:57:00,76.1,68.0,29.77,South,182,0.0,0.0,76,0.00,,,0.00,VWS V14.01,2013-09-01 08:57:00,
2013-09-01 04:00:00,75.8,67.7,29.76,South,182,0.0,0.0,76,0.00,,,0.00,VWS V14.01,2013-09-01 09:00:00,
2013-09-01 04:02:00,75.8,67.7,29.76,South,182,0.0,0.0,76,0.00,,,0.00,VWS V14.01,2013-09-01 09:02:00,
2013-09-01 04:07:00,75.5,67.4,29.76,South,182,0.0,0.0,76,0.00,,,0.00,VWS V14.01,2013-09-01 09:07:00,
2013-09-01 04:12:00,75.1,67.4,29.76,South,182,0.0,0.0,77,0.00,,,0.00,VWS V14.01,2013-09-01 09:12:00,
2013-09-01 04:17:00,74.8,67.5,29.76,South,182,0.0,0.0,78,0.00,,,0.00,VWS V14.01,2013-09-01 09:17:00,
2013-09-01 04:22:00,74.5,67.2,29.76,South,182,0.0,0.0,78,0.00,,,0.00,VWS V14.01,2013-09-01 09:22:00,
2013-09-01 04:27:00,74.2,67.3,29.76,South,182,0.0,0.0,79,0.00,,,0.00,VWS V14.01,2013-09-01 09:27:00,
2013-09-01 04:30:00,74.0,67.1,29.76,South,182,0.0,0.0,79,0.00,,,0.00,VWS V14.01,2013-09-01 09:30:00,
2013-09-01 04:32:00,74.0,67.1,29.76,South,182,0.0,0.0,79,0.00,,,0.00,VWS V14.01,2013-09-01 09:32:00,
2013-09-01 04:37:00,73.7,67.2,29.77,South,182,0.0,0.0,80,0.00,,,0.00,VWS V14.01,2013-09-01 09:37:00,
2013-09-01 04:42:00,73.5,67.3,29.76,South,182,0.0,0.0,81,0.00,,,0.00,VWS V14.01,2013-09-01 09:42:00,
2013-09-01 04:47:00,73.3,67.1,29.77,South,182,0.0,0.0,81,0.00,,,0.00,VWS V14.01,2013-09-01 09:47:00,
2013-09-01 04:52:00,73.2,67.4,29.77,South,182,0.0,0.0,82,0.00,,,0.00,VWS V14.01,2013-09-01 09:52:00,
2013-09-01 04:57:00,73.0,66.8,29.76,South,182,0.0,0.0,81,0.00,,,0.00,VWS V14.01,2013-09-01 09:57:00,
2013-09-01 05:00:00,72.8,66.6,29.77,South,182,0.0,0.0,81,0.00,,,0.00,VWS V14.01,2013-09-01 10:00:00,
2013-09-01 05:02:00,72.8,66.6,29.77,South,182,0.0,0.0,81,0.00,,,0.00,VWS V14.01,2013-09-01 10:02:00,
2013-09-01 05:07:00,72.6,66.8,29.77,South,182,0.0,0.0,82,0.00,,,0.00,VWS V14.01,2013-09-01 10:07:00,
2013-09-01 05:12:00,72.5,66.7,29.77,South,182,0.0,0.0,82,0.00,,,0.00,VWS V14.01,2013-09-01 10:12:00,
2013-09-01 05:17:00,72.4,66.6,29.77,South,182,0.0,0.0,82,0.00,,,0.00,VWS V14.01,2013-09-01 10:17:00,
2013-09-01 05:22:00,72.2,66.8,29.77,South,182,0.0,0.0,83,0.00,,,0.00,VWS V14.01,2013-09-01 10:22:00,
2013-09-01 05:27:00,72.1,66.7,29.76,South,182,0.0,0.0,83,0.00,,,0.00,VWS V14.01,2013-09-01 10:27:00,
2013-09-01 05:30:00,72.0,66.6,29.76,South,182,0.0,0.0,83,0.00,,,0.00,VWS V14.01,2013-09-01 10:30:00,
2013-09-01 05:32:00,72.0,66.6,29.76,South,182,0.0,0.0,83,0.00,,,0.00,VWS V14.01,2013-09-01 10:32:00,
2013-09-01 05:37:00,71.9,66.8,29.76,South,182,0.0,0.0,84,0.00,,,0.00,VWS V14.01,2013-09-01 10:37:00,
2013-09-01 05:42:00,71.8,66.7,29.76,South,182,0.0,0.0,84,0.00,,,0.00,VWS V14.01,2013-09-01 10:42:00,
2013-09-01 05:47:00,71.7,66.9,29.76,South,182,0.0,0.0,85,0.00,,,0.00,VWS V14.01,2013-09-01 10:47:00,
2013-09-01 05:52:00,71.6,66.9,29.76,South,182,0.0,0.0,85,0.00,,,0.00,VWS V14.01,2013-09-01 10:52:00,
2013-09-01 05:57:00,71.5,67.1,29.76,South,182,0.0,0.0,86,0.00,,,0.00,VWS V14.01,2013-09-01 10:57:00,
2013-09-01 06:00:00,71.5,67.1,29.76,South,179,0.0,0.0,86,0.00,,,0.00,VWS V14.01,2013-09-01 11:00:00,
2013-09-01 06:02:00,71.5,67.1,29.76,South,180,0.0,0.0,86,0.00,,,0.00,VWS V14.01,2013-09-01 11:02:00,
2013-09-01 06:07:00,71.6,67.2,29.76,South,180,0.0,1.0,86,0.00,,,0.00,VWS V14.01,2013-09-01 11:07:00,
2013-09-01 06:12:00,71.8,67.4,29.76,South,179,0.0,1.0,86,0.00,,,0.00,VWS V14.01,2013-09-01 11:12:00,
2013-09-01 06:17:00,72.1,67.7,29.76,South,180,0.0,1.0,86,0.00,,,0.00,VWS V14.01,2013-09-01 11:17:00,
2013-09-01 06:22:00,72.6,67.8,29.77,South,175,0.0,1.0,85,0.00,,,0.00,VWS V14.01,2013-09-01 11:22:00,
2013-09-01 06:27:00,73.0,67.9,29.76,South,184,0.0,1.0,84,0.00,,,0.00,VWS V14.01,2013-09-01 11:27:00,
2013-09-01 06:30:00,73.4,67.9,29.76,South,185,0.0,1.0,83,0.00,,,0.00,VWS V14.01,2013-09-01 11:30:00,
2013-09-01 06:32:00,73.5,68.0,29.76,South,185,0.0,1.0,83,0.00,,,0.00,VWS V14.01,2013-09-01 11:32:00,
2013-09-01 06:38:00,73.9,68.1,29.77,South,186,3.0,3.0,82,0.00,,,0.00,VWS V14.01,2013-09-01 11:38:00,
2013-09-01 06:43:00,74.3,67.7,29.77,South,188,0.0,5.0,80,0.00,,,0.00,VWS V14.01,2013-09-01 11:43:00,
2013-09-01 06:48:00,74.7,68.1,29.77,South,188,0.0,5.0,80,0.00,,,0.00,VWS V14.01,2013-09-01 11:48:00,
2013-09-01 06:53:00,75.0,68.1,29.77,South,182,0.0,5.0,79,0.00,,,0.00,VWS V14.01,2013-09-01 11:53:00,
2013-09-01 06:58:00,75.3,68.3,29.77,South,182,0.0,5.0,79,0.00,,,0.00,VWS V14.01,2013-09-01 11:58:00,
2013-09-01 07:00:00,75.5,68.2,29.77,ESE,122,0.0,5.0,78,0.00,,,0.00,VWS V14.01,2013-09-01 12:00:00,
2013-09-01 07:03:00,75.5,68.2,29.77,ESE,123,1.0,1.0,78,0.00,,,0.00,VWS V14.01,2013-09-01 12:03:00,
2013-09-01 07:08:00,75.7,68.4,29.78,SSE,149,0.0,5.0,78,0.00,,,0.00,VWS V14.01,2013-09-01 12:08:00,
2013-09-01 07:13:00,75.9,68.6,29.78,SSE,151,0.0,5.0,78,0.00,,,0.00,VWS V14.01,2013-09-01 12:13:00,
2013-09-01 07:18:00,76.0,68.3,29.78,SSE,150,0.0,5.0,77,0.00,,,0.00,VWS V14.01,2013-09-01 12:18:00,
2013-09-01 07:23:00,76.1,68.4,29.79,SSE,150,0.0,5.0,77,0.00,,,0.00,VWS V14.01,2013-09-01 12:23:00,
2013-09-01 07:28:00,76.3,68.6,29.79,SSE,152,0.0,5.0,77,0.00,,,0.00,VWS V14.01,2013-09-01 12:28:00,
2013-09-01 07:30:00,76.4,68.7,29.80,SSE,152,0.0,5.0,77,0.00,,,0.00,VWS V14.01,2013-09-01 12:30:00,
2013-09-01 07:33:00,76.4,68.7,29.80,SSE,152,0.0,0.0,77,0.00,,,0.00,VWS V14.01,2013-09-01 12:33:00,
2013-09-01 07:38:00,76.4,68.7,29.80,SSE,152,0.0,1.0,77,0.00,,,0.00,VWS V14.01,2013-09-01 12:38:00,
2013-09-01 07:43:00,76.4,68.7,29.80,SSE,152,0.0,1.0,77,0.00,,,0.00,VWS V14.01,2013-09-01 12:43:00,
2013-09-01 07:48:00,76.4,68.7,29.80,SSE,152,0.0,1.0,77,0.00,,,0.00,VWS V14.01,2013-09-01 12:48:00,
2013-09-01 07:53:00,76.4,69.0,29.79,SSE,152,0.0,1.0,78,0.00,,,0.00,VWS V14.01,2013-09-01 12:53:00,
2013-09-01 07:58:00,76.4,69.0,29.79,SSE,152,0.0,1.0,78,0.00,,,0.00,VWS V14.01,2013-09-01 12:58:00,
2013-09-01 08:00:00,76.4,69.4,29.79,SSE,152,0.0,1.0,79,0.00,,,0.00,VWS V14.01,2013-09-01 13:00:00,
2013-09-01 08:03:00,76.4,69.4,29.79,SSE,152,0.0,0.0,79,0.00,,,0.00,VWS V14.01,2013-09-01 13:03:00,
2013-09-01 08:08:00,76.4,69.4,29.79,SSE,152,0.0,0.0,79,0.00,,,0.00,VWS V14.01,2013-09-01 13:08:00,
2013-09-01 08:13:00,76.4,69.4,29.79,SSW,194,0.0,1.0,79,0.00,,,0.00,VWS V14.01,2013-09-01 13:13:00,
2013-09-01 08:18:00,76.4,69.4,29.79,South,191,0.0,1.0,79,0.00,,,0.00,VWS V14.01,2013-09-01 13:18:00,
2013-09-01 08:23:00,76.4,69.4,29.78,SSE,156,0.0,1.0,79,0.00,,,0.00,VWS V14.01,2013-09-01 13:23:00,
2013-09-01 08:28:00,76.5,69.5,29.79,SSW,193,0.0,5.0,79,0.00,,,0.00,VWS V14.01,2013-09-01 13:28:00,
2013-09-01 08:30:00,76.7,69.3,29.79,South,169,1.0,6.0,78,0.00,,,0.00,VWS V14.01,2013-09-01 13:30:00,
2013-09-01 08:33:00,76.7,69.3,29.79,South,169,0.0,1.0,78,0.00,,,0.00,VWS V14.01,2013-09-01 13:33:00,
2013-09-01 08:38:00,76.9,69.5,29.80,SSE,167,0.0,2.0,78,0.00,,,0.00,VWS V14.01,2013-09-01 13:38:00,
2013-09-01 08:43:00,77.0,69.6,29.80,SSE,167,0.0,2.0,78,0.00,,,0.00,VWS V14.01,2013-09-01 13:43:00,
2013-09-01 08:48:00,77.3,69.5,29.79,South,187,4.0,4.0,77,0.00,,,0.00,VWS V14.01,2013-09-01 13:48:00,
2013-09-01 08:53:00,77.5,69.7,29.80,South,176,0.0,4.0,77,0.00,,,0.00,VWS V14.01,2013-09-01 13:53:00,
2013-09-01 08:58:00,77.7,69.9,29.80,South,176,0.0,4.0,77,0.00,,,0.00,VWS V14.01,2013-09-01 13:58:00,
2013-09-01 09:00:00,77.8,70.0,29.80,South,177,0.0,4.0,77,0.00,,,0.00,VWS V14.01,2013-09-01 14:00:00,
2013-09-01 09:03:00,77.9,70.1,29.80,South,177,0.0,0.0,77,0.00,,,0.00,VWS V14.01,2013-09-01 14:03:00,
2013-09-01 09:08:00,78.1,69.9,29.80,South,176,0.0,1.0,76,0.00,,,0.00,VWS V14.01,2013-09-01 14:08:00,
2013-09-01 09:13:00,78.4,71.0,29.80,South,177,0.0,1.0,78,0.00,,,0.00,VWS V14.01,2013-09-01 14:13:00,
2013-09-01 09:18:00,79.2,71.0,29.80,South,176,0.0,1.0,76,0.00,,,0.00,VWS V14.01,2013-09-01 14:18:00,
2013-09-01 09:23:00,80.6,71.6,29.80,South,176,0.0,1.0,74,0.00,,,0.00,VWS V14.01,2013-09-01 14:23:00,
2013-09-01 09:28:00,81.6,71.3,29.80,South,177,0.0,1.0,71,0.00,,,0.00,VWS V14.01,2013-09-01 14:28:00,
2013-09-01 09:30:00,82.3,72.0,29.79,South,176,0.0,1.0,71,0.00,,,0.00,VWS V14.01,2013-09-01 14:30:00,
2013-09-01 09:33:00,82.6,71.8,29.79,South,177,0.0,0.0,70,0.00,,,0.00,VWS V14.01,2013-09-01 14:33:00,
2013-09-01 09:38:00,83.7,72.0,29.79,South,178,0.0,1.0,68,0.00,,,0.00,VWS V14.01,2013-09-01 14:38:00,
2013-09-01 09:43:00,85.0,72.4,29.79,NW,323,0.0,3.0,66,0.00,,,0.00,VWS V14.01,2013-09-01 14:43:00,
2013-09-01 09:48:00,86.2,71.2,29.79,SW,228,0.0,6.0,61,0.00,,,0.00,VWS V14.01,2013-09-01 14:48:00,
2013-09-01 09:53:00,87.5,71.9,29.79,SW,228,0.0,6.0,60,0.00,,,0.00,VWS V14.01,2013-09-01 14:53:00,
2013-09-01 09:58:00,88.5,70.8,29.79,SSW,207,0.0,7.0,56,0.00,,,0.00,VWS V14.01,2013-09-01 14:58:00,
2013-09-01 10:00:00,89.1,71.9,29.79,NW,304,1.0,7.0,57,0.00,,,0.00,VWS V14.01,2013-09-01 15:00:00,
2013-09-01 10:03:00,89.2,71.5,29.80,North,9,0.0,1.0,56,0.00,,,0.00,VWS V14.01,2013-09-01 15:03:00,
2013-09-01 10:08:00,90.2,72.4,29.80,North,9,0.0,1.0,56,0.00,,,0.00,VWS V14.01,2013-09-01 15:08:00,
2013-09-01 10:13:00,90.4,70.9,29.80,NW,319,7.0,8.0,53,0.00,,,0.00,VWS V14.01,2013-09-01 15:13:00,
2013-09-01 10:18:00,89.9,71.6,29.80,NNW,338,0.0,8.0,55,0.00,,,0.00,VWS V14.01,2013-09-01 15:18:00,
2013-09-01 10:23:00,89.7,72.4,29.80,North,360,0.0,8.0,57,0.00,,,0.00,VWS V14.01,2013-09-01 15:23:00,
2013-09-01 10:28:00,90.2,70.8,29.80,North,11,2.0,8.0,53,0.00,,,0.00,VWS V14.01,2013-09-01 15:28:00,
2013-09-01 10:30:00,90.3,70.9,29.80,North,5,0.0,8.0,53,0.00,,,0.00,VWS V14.01,2013-09-01 15:30:00,
2013-09-01 10:33:00,90.5,72.1,29.80,North,5,0.0,1.0,55,0.00,,,0.00,VWS V14.01,2013-09-01 15:33:00,
2013-09-01 10:38:00,91.0,71.5,29.80,NNE,24,2.0,6.0,53,0.00,,,0.00,VWS V14.01,2013-09-01 15:38:00,
2013-09-01 10:43:00,90.9,71.4,29.80,North,360,0.0,6.0,53,0.00,,,0.00,VWS V14.01,2013-09-01 15:43:00,
2013-09-01 10:48:00,90.6,70.6,29.80,North,350,0.0,6.0,52,0.00,,,0.00,VWS V14.01,2013-09-01 15:48:00,
2013-09-01 10:53:00,90.3,70.3,29.80,NW,325,7.0,7.0,52,0.00,,,0.00,VWS V14.01,2013-09-01 15:53:00,
2013-09-01 10:58:00,89.4,70.6,29.80,NW,325,5.0,7.0,54,0.00,,,0.00,VWS V14.01,2013-09-01 15:58:00,
2013-09-01 11:00:00,89.0,70.8,29.80,NW,325,1.0,7.0,55,0.00,,,0.00,VWS V14.01,2013-09-01 16:00:00,
2013-09-01 11:03:00,88.9,71.2,29.81,NW,323,1.0,5.0,56,0.00,,,0.00,VWS V14.01,2013-09-01 16:03:00,
2013-09-01 11:08:00,88.5,71.3,29.81,NW,323,0.0,5.0,57,0.00,,,0.00,VWS V14.01,2013-09-01 16:08:00,
2013-09-01 11:13:00,88.4,71.8,29.81,NW,323,0.0,5.0,58,0.00,,,0.00,VWS V14.01,2013-09-01 16:13:00,
2013-09-01 11:18:00,88.2,71.6,29.81,NW,325,0.0,5.0,58,0.00,,,0.00,VWS V14.01,2013-09-01 16:18:00,
2013-09-01 11:23:00,87.9,71.3,29.81,NNW,327,0.0,6.0,58,0.00,,,0.00,VWS V14.01,2013-09-01 16:23:00,
2013-09-01 11:28:00,88.1,72.0,29.81,NNE,33,0.0,6.0,59,0.00,,,0.00,VWS V14.01,2013-09-01 16:28:00,
2013-09-01 11:30:00,89.0,71.8,29.81,NW,325,1.0,6.0,57,0.00,,,0.00,VWS V14.01,2013-09-01 16:30:00,
2013-09-01 11:33:00,89.3,72.1,29.81,NNW,340,2.0,7.0,57,0.00,,,0.00,VWS V14.01,2013-09-01 16:33:00,
2013-09-01 11:38:00,90.0,72.2,29.80,NE,55,6.0,7.0,56,0.00,,,0.00,VWS V14.01,2013-09-01 16:38:00,
2013-09-01 11:43:00,90.3,72.5,29.80,NE,34,3.0,9.0,56,0.00,,,0.00,VWS V14.01,2013-09-01 16:43:00,
2013-09-01 11:48:00,90.6,73.3,29.81,NNE,25,1.0,10.0,57,0.00,,,0.00,VWS V14.01,2013-09-01 16:48:00,
2013-09-01 11:53:00,91.1,73.2,29.81,NNE,25,5.0,10.0,56,0.00,,,0.00,VWS V14.01,2013-09-01 16:53:00,
2013-09-01 11:58:00,91.2,72.8,29.81,NNW,346,4.0,12.0,55,0.00,,,0.00,VWS V14.01,2013-09-01 16:58:00,
2013-09-01 12:00:00,91.0,73.1,29.81,NNE,14,3.0,12.0,56,0.00,,,0.00,VWS V14.01,2013-09-01 17:00:00,
2013-09-01 12:03:00,90.9,73.0,29.81,NE,36,6.0,7.0,56,0.00,,,0.00,VWS V14.01,2013-09-01 17:03:00,
2013-09-01 12:08:00,91.0,74.2,29.81,NNE,14,3.0,11.0,58,0.00,,,0.00,VWS V14.01,2013-09-01 17:08:00,
2013-09-01 12:13:00,91.6,74.2,29.81,NNE,14,2.0,11.0,57,0.00,,,0.00,VWS V14.01,2013-09-01 17:13:00,
2013-09-01 12:18:00,91.9,74.0,29.81,NNE,32,7.0,13.0,56,0.00,,,0.00,VWS V14.01,2013-09-01 17:18:00,
2013-09-01 12:23:00,91.9,74.0,29.81,North,360,7.0,13.0,56,0.00,,,0.00,VWS V14.01,2013-09-01 17:23:00,
2013-09-01 12:28:00,91.9,74.0,29.81,NNW,344,5.0,13.0,56,0.00,,,0.00,VWS V14.01,2013-09-01 17:28:00,
2013-09-01 12:30:00,92.0,74.1,29.81,WNW,295,4.0,13.0,56,0.00,,,0.00,VWS V14.01,2013-09-01 17:30:00,
2013-09-01 12:33:00,91.9,74.0,29.81,North,355,6.0,12.0,56,0.00,,,0.00,VWS V14.01,2013-09-01 17:33:00,
2013-09-01 12:38:00,91.2,74.4,29.81,NNW,346,0.0,12.0,58,0.00,,,0.00,VWS V14.01,2013-09-01 17:38:00,
2013-09-01 12:43:00,91.0,74.2,29.81,NNE,16,1.0,12.0,58,0.00,,,0.00,VWS V14.01,2013-09-01 17:43:00,
2013-09-01 12:48:00,90.9,74.1,29.82,NE,55,5.0,12.0,58,0.00,,,0.00,VWS V14.01,2013-09-01 17:48:00,
2013-09-01 12:53:00,90.5,74.2,29.82,ENE,71,7.0,12.0,59,0.00,,,0.00,VWS V14.01,2013-09-01 17:53:00,
2013-09-01 12:58:00,90.2,74.4,29.82,NNE,30,3.0,12.0,60,0.00,,,0.00,VWS V14.01,2013-09-01 17:58:00,
2013-09-01 13:00:00,90.4,74.1,29.81,NW,311,6.0,12.0,59,0.00,,,0.00,VWS V14.01,2013-09-01 18:00:00,
2013-09-01 13:03:00,90.5,74.2,29.81,North,350,1.0,6.0,59,0.00,,,0.00,VWS V14.01,2013-09-01 18:03:00,
2013-09-01 13:08:00,90.9,74.1,29.82,NNW,330,6.0,8.0,58,0.00,,,0.00,VWS V14.01,2013-09-01 18:08:00,
2013-09-01 13:13:00,91.1,74.8,29.82,North,360,9.0,9.0,59,0.00,,,0.00,VWS V14.01,2013-09-01 18:13:00,
2013-09-01 13:18:00,90.6,73.8,29.82,NNW,347,2.0,9.0,58,0.00,,,0.00,VWS V14.01,2013-09-01 18:18:00,
2013-09-01 13:23:00,90.4,74.6,29.82,NNE,15,4.0,9.0,60,0.00,,,0.00,VWS V14.01,2013-09-01 18:23:00,
2013-09-01 13:28:00,90.9,75.6,29.82,NE,34,2.0,9.0,61,0.00,,,0.00,VWS V14.01,2013-09-01 18:28:00,
2013-09-01 13:30:00,91.5,75.7,29.82,NNE,33,8.0,10.0,60,0.00,,,0.00,VWS V14.01,2013-09-01 18:30:00,
2013-09-01 13:33:00,91.8,74.9,29.82,NE,36,8.0,8.0,58,0.00,,,0.00,VWS V14.01,2013-09-01 18:33:00,
2013-09-01 13:38:00,91.7,74.8,29.82,NE,35,1.0,9.0,58,0.00,,,0.00,VWS V14.01,2013-09-01 18:38:00,
2013-09-01 13:43:00,92.0,75.1,29.82,ENE,59,5.0,9.0,58,0.00,,,0.00,VWS V14.01,2013-09-01 18:43:00,
2013-09-01 13:48:00,91.7,74.8,29.82,NNE,14,5.0,9.0,58,0.00,,,0.00,VWS V14.01,2013-09-01 18:48:00,
2013-09-01 13:53:00,91.1,75.3,29.82,NNE,28,0.0,9.0,60,0.00,,,0.00,VWS V14.01,2013-09-01 18:53:00,
2013-09-01 13:58:00,90.8,75.0,29.82,ENE,67,4.0,9.0,60,0.00,,,0.00,VWS V14.01,2013-09-01 18:58:00,
2013-09-01 14:00:00,90.5,74.7,29.82,North,10,2.0,9.0,60,0.00,,,0.00,VWS V14.01,2013-09-01 19:00:00,
2013-09-01 14:03:00,90.5,75.2,29.82,NNE,22,2.0,4.0,61,0.00,,,0.00,VWS V14.01,2013-09-01 19:03:00,
2013-09-01 14:08:00,90.4,75.1,29.82,NNE,30,0.0,7.0,61,0.00,,,0.00,VWS V14.01,2013-09-01 19:08:00,
2013-09-01 14:13:00,90.4,74.6,29.82,NNE,14,2.0,7.0,60,0.00,,,0.00,VWS V14.01,2013-09-01 19:13:00,
2013-09-01 14:18:00,90.6,74.8,29.82,NNE,21,5.0,7.0,60,0.00,,,0.00,VWS V14.01,2013-09-01 19:18:00,
2013-09-01 14:23:00,90.5,74.2,29.82,NNE,17,2.0,7.0,59,0.00,,,0.00,VWS V14.01,2013-09-01 19:23:00,
2013-09-01 14:28:00,90.3,74.5,29.82,NE,36,1.0,7.0,60,0.00,,,0.00,VWS V14.01,2013-09-01 19:28:00,
2013-09-01 14:30:00,90.2,75.4,29.82,NNE,24,5.0,7.0,62,0.00,,,0.00,VWS V14.01,2013-09-01 19:30:00,
2013-09-01 14:33:00,90.3,75.0,29.82,NNE,20,0.0,5.0,61,0.00,,,0.00,VWS V14.01,2013-09-01 19:33:00,
2013-09-01 14:38:00,90.5,75.7,29.82,NNW,347,5.0,5.0,62,0.00,,,0.00,VWS V14.01,2013-09-01 19:38:00,
2013-09-01 14:43:00,90.7,75.9,29.82,North,10,0.0,6.0,62,0.00,,,0.00,VWS V14.01,2013-09-01 19:43:00,
2013-09-01 14:48:00,91.1,75.3,29.82,NNW,329,0.0,7.0,60,0.00,,,0.00,VWS V14.01,2013-09-01 19:48:00,
2013-09-01 14:53:00,91.3,75.0,29.81,NNE,15,5.0,8.0,59,0.00,,,0.00,VWS V14.01,2013-09-01 19:53:00,
2013-09-01 14:58:00,91.8,75.9,29.81,NNE,29,4.0,8.0,60,0.00,,,0.00,VWS V14.01,2013-09-01 19:58:00,
2013-09-01 15:00:00,92.1,75.7,29.81,North,360,6.0,9.0,59,0.00,,,0.00,VWS V14.01,2013-09-01 20:00:00,
2013-09-01 15:03:00,92.2,75.3,29.81,NW,316,6.0,7.0,58,0.00,,,0.00,VWS V14.01,2013-09-01 20:03:00,
2013-09-01 15:08:00,92.1,75.2,29.81,North,360,6.0,11.0,58,0.00,,,0.00,VWS V14.01,2013-09-01 20:08:00,
2013-09-01 15:13:00,92.0,75.1,29.81,NW,317,0.0,11.0,58,0.00,,,0.00,VWS V14.01,2013-09-01 20:13:00,
2013-09-01 15:18:00,92.1,74.7,29.81,NE,41,4.0,11.0,57,0.00,,,0.00,VWS V14.01,2013-09-01 20:18:00,
2013-09-01 15:24:00,92.4,73.3,29.81,NNE,13,2.0,11.0,54,0.00,,,0.00,VWS V14.01,2013-09-01 20:24:00,
2013-09-01 15:29:00,92.2,74.2,29.81,NE,45,4.0,11.0,56,0.00,,,0.00,VWS V14.01,2013-09-01 20:29:00,
2013-09-01 15:30:00,92.3,73.8,29.81,NW,304,4.0,11.0,55,0.00,,,0.00,VWS V14.01,2013-09-01 20:30:00,
2013-09-01 15:34:00,92.2,73.7,29.81,NE,52,1.0,5.0,55,0.00,,,0.00,VWS V14.01,2013-09-01 20:34:00,
2013-09-01 15:39:00,91.8,73.9,29.81,NNE,32,0.0,7.0,56,0.00,,,0.00,VWS V14.01,2013-09-01 20:39:00,
2013-09-01 15:44:00,91.4,74.0,29.80,North,355,0.0,7.0,57,0.00,,,0.00,VWS V14.01,2013-09-01 20:44:00,
2013-09-01 15:49:00,91.1,74.3,29.80,North,350,0.0,7.0,58,0.00,,,0.00,VWS V14.01,2013-09-01 20:49:00,
2013-09-01 15:54:00,90.8,74.5,29.80,North,350,2.0,7.0,59,0.00,,,0.00,VWS V14.01,2013-09-01 20:54:00,
2013-09-01 15:59:00,90.6,74.3,29.80,North,350,2.0,7.0,59,0.00,,,0.00,VWS V14.01,2013-09-01 20:59:00,
2013-09-01 16:00:00,90.4,74.1,29.79,North,350,1.0,7.0,59,0.00,,,0.00,VWS V14.01,2013-09-01 21:00:00,
2013-09-01 16:04:00,90.4,74.6,29.79,North,350,1.0,1.0,60,0.00,,,0.00,VWS V14.01,2013-09-01 21:04:00,
2013-09-01 16:09:00,90.2,74.4,29.79,North,5,0.0,5.0,60,0.00,,,0.00,VWS V14.01,2013-09-01 21:09:00,
2013-09-01 16:14:00,90.3,75.5,29.79,North,9,0.0,5.0,62,0.00,,,0.00,VWS V14.01,2013-09-01 21:14:00,
2013-09-01 16:19:00,90.4,74.6,29.79,NE,41,1.0,5.0,60,0.00,,,0.00,VWS V14.01,2013-09-01 21:19:00,
2013-09-01 16:24:00,90.3,74.5,29.78,NNE,29,1.0,7.0,60,0.00,,,0.00,VWS V14.01,2013-09-01 21:24:00,
2013-09-01 16:29:00,90.3,75.0,29.78,NNE,29,0.0,7.0,61,0.00,,,0.00,VWS V14.01,2013-09-01 21:29:00,
2013-09-01 16:30:00,90.4,75.1,29.78,NNE,24,1.0,7.0,61,0.00,,,0.00,VWS V14.01,2013-09-01 21:30:00,
2013-09-01 16:34:00,90.6,75.3,29.78,North,355,0.0,5.0,61,0.00,,,0.00,VWS V14.01,2013-09-01 21:34:00,
2013-09-01 16:39:00,90.6,75.3,29.78,North,360,2.0,6.0,61,0.00,,,0.00,VWS V14.01,2013-09-01 21:39:00,
2013-09-01 16:44:00,90.4,75.6,29.78,North,349,1.0,7.0,62,0.00,,,0.00,VWS V14.01,2013-09-01 21:44:00,
2013-09-01 16:49:00,90.1,74.8,29.78,NNE,13,4.0,7.0,61,0.00,,,0.00,VWS V14.01,2013-09-01 21:49:00,
2013-09-01 16:54:00,89.8,75.1,29.78,North,355,1.0,7.0,62,0.00,,,0.00,VWS V14.01,2013-09-01 21:54:00,
2013-09-01 16:59:00,89.7,75.4,29.78,North,355,4.0,7.0,63,0.00,,,0.00,VWS V14.01,2013-09-01 21:59:00,
2013-09-01 17:00:00,89.7,75.4,29.78,North,355,0.0,7.0,63,0.00,,,0.00,VWS V14.01,2013-09-01 22:00:00,
2013-09-01 17:04:00,89.7,75.0,29.78,North,355,0.0,0.0,62,0.00,,,0.00,VWS V14.01,2013-09-01 22:04:00,
2013-09-01 17:09:00,89.8,74.6,29.78,North,355,0.0,2.0,61,0.00,,,0.00,VWS V14.01,2013-09-01 22:09:00,
2013-09-01 17:14:00,89.9,74.7,29.78,North,355,0.0,2.0,61,0.00,,,0.00,VWS V14.01,2013-09-01 22:14:00,
2013-09-01 17:19:00,90.0,74.8,29.78,North,355,2.0,5.0,61,0.00,,,0.00,VWS V14.01,2013-09-01 22:19:00,
2013-09-01 17:24:00,89.9,75.1,29.78,North,355,2.0,5.0,62,0.00,,,0.00,VWS V14.01,2013-09-01 22:24:00,
2013-09-01 17:29:00,89.8,75.1,29.78,North,355,0.0,5.0,62,0.00,,,0.00,VWS V14.01,2013-09-01 22:29:00,
2013-09-01 17:30:00,89.8,75.5,29.78,North,355,0.0,5.0,63,0.00,,,0.00,VWS V14.01,2013-09-01 22:30:00,
2013-09-01 17:34:00,89.7,75.0,29.78,North,355,0.0,1.0,62,0.00,,,0.00,VWS V14.01,2013-09-01 22:34:00,
2013-09-01 17:39:00,89.6,74.9,29.78,North,355,0.0,4.0,62,0.00,,,0.00,VWS V14.01,2013-09-01 22:39:00,
2013-09-01 17:44:00,89.4,74.7,29.79,NW,323,0.0,4.0,62,0.00,,,0.00,VWS V14.01,2013-09-01 22:44:00,
2013-09-01 17:49:00,89.2,75.0,29.79,North,355,0.0,4.0,63,0.00,,,0.00,VWS V14.01,2013-09-01 22:49:00,
2013-09-01 17:54:00,89.1,74.9,29.79,North,355,0.0,4.0,63,0.00,,,0.00,VWS V14.01,2013-09-01 22:54:00,
2013-09-01 17:59:00,89.0,74.8,29.79,North,355,0.0,4.0,63,0.00,,,0.00,VWS V14.01,2013-09-01 22:59:00,
2013-09-01 18:00:00,89.0,75.2,29.79,North,355,0.0,4.0,64,0.00,,,0.00,VWS V14.01,2013-09-01 23:00:00,
2013-09-01 18:04:00,89.0,75.2,29.79,North,355,0.0,0.0,64,0.00,,,0.00,VWS V14.01,2013-09-01 23:04:00,
2013-09-01 18:09:00,88.9,75.6,29.79,North,355,0.0,0.0,65,0.00,,,0.00,VWS V14.01,2013-09-01 23:09:00,
2013-09-01 18:14:00,88.8,75.5,29.79,North,355,0.0,0.0,65,0.00,,,0.00,VWS V14.01,2013-09-01 23:14:00,
2013-09-01 18:19:00,88.7,75.4,29.79,North,355,0.0,0.0,65,0.00,,,0.00,VWS V14.01,2013-09-01 23:19:00,
2013-09-01 18:24:00,88.6,75.3,29.79,North,355,0.0,0.0,65,0.00,,,0.00,VWS V14.01,2013-09-01 23:24:00,
2013-09-01 18:29:00,88.5,75.2,29.80,North,355,1.0,1.0,65,0.00,,,0.00,VWS V14.01,2013-09-01 23:29:00,
2013-09-01 18:30:00,88.4,75.1,29.80,North,355,0.0,1.0,65,0.00,,,0.00,VWS V14.01,2013-09-01 23:30:00,
2013-09-01 18:34:00,88.3,75.5,29.79,North,350,0.0,2.0,66,0.00,,,0.00,VWS V14.01,2013-09-01 23:34:00,
2013-09-01 18:39:00,88.1,75.3,29.79,North,350,0.0,2.0,66,0.00,,,0.00,VWS V14.01,2013-09-01 23:39:00,
2013-09-01 18:44:00,88.0,75.2,29.80,North,350,0.0,2.0,66,0.00,,,0.00,VWS V14.01,2013-09-01 23:44:00,
2013-09-01 18:49:00,87.8,75.0,29.80,North,349,0.0,2.0,66,0.00,,,0.00,VWS V14.01,2013-09-01 23:49:00,
2013-09-01 18:54:00,87.6,74.8,29.80,NNW,348,0.0,2.0,66,0.00,,,0.00,VWS V14.01,2013-09-01 23:54:00,
2013-09-01 18:59:00,87.5,75.2,29.80,NNW,348,0.0,2.0,67,0.00,,,0.00,VWS V14.01,2013-09-01 23:59:00,
2013-09-01 19:00:00,87.3,75.0,29.80,NNW,348,0.0,2.0,67,0.00,,,0.00,VWS V14.01,2013-09-02 00:00:00,
2013-09-01 19:04:00,87.3,75.0,29.80,NNW,348,0.0,0.0,67,0.00,,,0.00,VWS V14.01,2013-09-02 00:04:00,
2013-09-01 19:09:00,87.1,74.8,29.80,NNW,348,0.0,0.0,67,0.00,,,0.00,VWS V14.01,2013-09-02 00:09:00,
2013-09-01 19:14:00,87.1,75.3,29.80,NNW,348,0.0,0.0,68,0.00,,,0.00,VWS V14.01,2013-09-02 00:14:00,
2013-09-01 19:19:00,86.9,75.1,29.80,NNW,348,0.0,1.0,68,0.00,,,0.00,VWS V14.01,2013-09-02 00:19:00,
2013-09-01 19:24:00,86.7,75.3,29.81,NNW,348,1.0,1.0,69,0.00,,,0.00,VWS V14.01,2013-09-02 00:24:00,
2013-09-01 19:29:00,86.5,75.1,29.81,NNW,348,0.0,1.0,69,0.00,,,0.00,VWS V14.01,2013-09-02 00:29:00,
2013-09-01 19:30:00,86.4,75.0,29.81,NNW,348,0.0,1.0,69,0.00,,,0.00,VWS V14.01,2013-09-02 00:30:00,
2013-09-01 19:34:00,86.4,75.0,29.81,NNW,348,0.0,0.0,69,0.00,,,0.00,VWS V14.01,2013-09-02 00:34:00,
2013-09-01 19:39:00,86.2,75.3,29.81,NNW,348,0.0,0.0,70,0.00,,,0.00,VWS V14.01,2013-09-02 00:39:00,
2013-09-01 19:44:00,86.1,75.2,29.81,NNW,348,0.0,0.0,70,0.00,,,0.00,VWS V14.01,2013-09-02 00:44:00,
2013-09-01 19:49:00,85.9,75.0,29.81,NNW,348,0.0,0.0,70,0.00,,,0.00,VWS V14.01,2013-09-02 00:49:00,
2013-09-01 19:54:00,85.7,75.2,29.81,NNW,348,0.0,0.0,71,0.00,,,0.00,VWS V14.01,2013-09-02 00:54:00,
2013-09-01 19:59:00,85.6,75.1,29.81,NNW,348,0.0,0.0,71,0.00,,,0.00,VWS V14.01,2013-09-02 00:59:00,
2013-09-01 20:00:00,85.5,75.0,29.81,NNW,348,0.0,0.0,71,0.00,,,0.00,VWS V14.01,2013-09-02 01:00:00,
2013-09-01 20:04:00,85.4,74.9,29.81,NNW,348,0.0,0.0,71,0.00,,,0.00,VWS V14.01,2013-09-02 01:04:00,
2013-09-01 20:09:00,85.2,74.7,29.81,NNW,348,0.0,0.0,71,0.00,,,0.00,VWS V14.01,2013-09-02 01:09:00,
2013-09-01 20:14:00,85.1,75.1,29.82,NNW,348,0.0,0.0,72,0.00,,,0.00,VWS V14.01,2013-09-02 01:14:00,
2013-09-01 20:19:00,84.8,74.8,29.82,NNW,348,0.0,0.0,72,0.00,,,0.00,VWS V14.01,2013-09-02 01:19:00,
2013-09-01 20:24:00,84.6,75.0,29.82,NNW,348,0.0,0.0,73,0.00,,,0.00,VWS V14.01,2013-09-02 01:24:00,
2013-09-01 20:29:00,84.4,74.8,29.82,NNW,348,0.0,1.0,73,0.00,,,0.00,VWS V14.01,2013-09-02 01:29:00,
2013-09-01 20:30:00,84.3,74.7,29.82,NNW,348,0.0,1.0,73,0.00,,,0.00,VWS V14.01,2013-09-02 01:30:00,
2013-09-01 20:34:00,84.3,75.1,29.82,NNW,348,0.0,0.0,74,0.00,,,0.00,VWS V14.01,2013-09-02 01:34:00,
2013-09-01 20:39:00,84.2,75.0,29.82,NNW,348,0.0,0.0,74,0.00,,,0.00,VWS V14.01,2013-09-02 01:39:00,
2013-09-01 20:44:00,84.1,74.9,29.82,NNW,348,0.0,0.0,74,0.00,,,0.00,VWS V14.01,2013-09-02 01:44:00,
2013-09-01 20:49:00,84.1,75.3,29.83,NNW,348,0.0,0.0,75,0.00,,,0.00,VWS V14.01,2013-09-02 01:49:00,
2013-09-01 20:54:00,83.9,75.1,29.84,NNW,348,0.0,0.0,75,0.00,,,0.00,VWS V14.01,2013-09-02 01:54:00,
2013-09-01 20:59:00,83.7,74.9,29.84,NNW,348,0.0,1.0,75,0.00,,,0.00,VWS V14.01,2013-09-02 01:59:00,
2013-09-01 21:00:00,83.6,75.2,29.84,NNW,347,0.0,2.0,76,0.00,,,0.00,VWS V14.01,2013-09-02 02:00:00,
2013-09-01 21:04:00,83.6,75.2,29.84,NNW,347,0.0,1.0,76,0.00,,,0.00,VWS V14.01,2013-09-02 02:04:00,
2013-09-01 21:09:00,83.4,75.1,29.85,NNW,346,0.0,1.0,76,0.00,,,0.00,VWS V14.01,2013-09-02 02:09:00,
2013-09-01 21:14:00,83.2,75.2,29.85,North,360,2.0,2.0,77,0.00,,,0.00,VWS V14.01,2013-09-02 02:14:00,
2013-09-01 21:19:00,83.1,75.2,29.86,ENE,67,2.0,3.0,77,0.00,,,0.00,VWS V14.01,2013-09-02 02:19:00,
2013-09-01 21:24:00,83.1,75.2,29.86,North,360,2.0,4.0,77,0.00,,,0.00,VWS V14.01,2013-09-02 02:24:00,
2013-09-01 21:29:00,83.2,74.8,29.86,NE,46,0.0,7.0,76,0.00,,,0.00,VWS V14.01,2013-09-02 02:29:00,
2013-09-01 21:30:00,83.2,74.8,29.86,NNE,30,0.0,7.0,76,0.00,,,0.00,VWS V14.01,2013-09-02 02:30:00,
2013-09-01 21:34:00,83.3,74.9,29.86,NE,43,0.0,5.0,76,0.00,,,0.00,VWS V14.01,2013-09-02 02:34:00,
2013-09-01 21:39:00,83.3,74.9,29.87,NNE,28,1.0,5.0,76,0.00,,,0.00,VWS V14.01,2013-09-02 02:39:00,
2013-09-01 21:44:00,83.4,75.1,29.87,NE,37,7.0,8.0,76,0.00,,,0.00,VWS V14.01,2013-09-02 02:44:00,
2013-09-01 21:49:00,83.4,75.4,29.87,North,9,0.0,8.0,77,0.00,,,0.00,VWS V14.01,2013-09-02 02:49:00,
2013-09-01 21:54:00,83.4,75.4,29.87,North,11,1.0,8.0,77,0.00,,,0.00,VWS V14.01,2013-09-02 02:54:00,
2013-09-01 21:59:00,83.3,75.3,29.88,North,9,0.0,8.0,77,0.00,,,0.00,VWS V14.01,2013-09-02 02:59:00,
2013-09-01 22:00:00,83.3,75.3,29.88,North,355,4.0,8.0,77,0.00,,,0.00,VWS V14.01,2013-09-02 03:00:00,
2013-09-01 22:04:00,83.3,75.3,29.88,North,360,0.0,4.0,77,0.00,,,0.00,VWS V14.01,2013-09-02 03:04:00,
2013-09-01 22:09:00,83.2,75.6,29.88,North,360,0.0,4.0,78,0.00,,,0.00,VWS V14.01,2013-09-02 03:09:00,
2013-09-01 22:14:00,83.0,75.4,29.88,North,5,0.0,5.0,78,0.00,,,0.00,VWS V14.01,2013-09-02 03:14:00,
2013-09-01 22:19:00,82.9,75.3,29.88,NNE,19,0.0,5.0,78,0.00,,,0.00,VWS V14.01,2013-09-02 03:19:00,
2013-09-01 22:24:00,82.9,75.7,29.88,NNE,32,8.0,8.0,79,0.00,,,0.00,VWS V14.01,2013-09-02 03:24:00,
2013-09-01 22:29:00,82.7,75.5,29.88,NNE,22,0.0,8.0,79,0.00,,,0.00,VWS V14.01,2013-09-02 03:29:00,
2013-09-01 22:30:00,82.7,75.5,29.88,NNW,341,0.0,8.0,79,0.00,,,0.00,VWS V14.01,2013-09-02 03:30:00,
2013-09-01 22:34:00,82.6,75.4,29.88,NE,52,4.0,5.0,79,0.00,,,0.00,VWS V14.01,2013-09-02 03:34:00,
2013-09-01 22:39:00,82.4,75.2,29.88,North,9,1.0,5.0,79,0.00,,,0.00,VWS V14.01,2013-09-02 03:39:00,
2013-09-01 22:44:00,82.2,75.0,29.88,NNW,341,6.0,6.0,79,0.00,,,0.00,VWS V14.01,2013-09-02 03:44:00,
2013-09-01 22:50:00,82.0,74.5,29.88,NNE,15,0.0,6.0,78,0.00,,,0.00,VWS V14.01,2013-09-02 03:50:00,
2013-09-01 22:55:00,81.8,73.9,29.88,NE,52,0.0,6.0,77,0.00,,,0.00,VWS V14.01,2013-09-02 03:55:00,
2013-09-01 23:00:00,81.7,73.4,29.88,North,360,0.0,6.0,76,0.00,,,0.00,VWS V14.01,2013-09-02 04:00:00,
2013-09-01 23:01:00,81.6,73.3,29.88,NE,38,1.0,6.0,76,0.00,,,0.00,VWS V14.01,2013-09-02 04:01:00,
2013-09-01 23:02:00,81.6,73.3,29.88,NNE,33,0.0,0.0,76,0.00,,,0.00,VWS V14.01,2013-09-02 04:02:00,
2013-09-01 23:03:00,81.6,73.3,29.88,NE,34,2.0,2.0,76,0.00,,,0.00,VWS V14.01,2013-09-02 04:03:00,
2013-09-01 23:08:00,81.4,73.1,29.87,NE,34,0.0,2.0,76,0.00,,,0.00,VWS V14.01,2013-09-02 04:08:00,
2013-09-01 23:13:00,81.3,73.0,29.87,NNE,20,0.0,3.0,76,0.00,,,0.00,VWS V14.01,2013-09-02 04:13:00,
2013-09-01 23:18:00,81.2,72.9,29.88,NNE,13,1.0,4.0,76,0.00,,,0.00,VWS V14.01,2013-09-02 04:18:00,
2013-09-01 23:23:00,81.1,72.8,29.87,NNE,13,0.0,4.0,76,0.00,,,0.00,VWS V14.01,2013-09-02 04:23:00,
2013-09-01 23:28:00,81.0,72.7,29.88,NNE,13,0.0,4.0,76,0.00,,,0.00,VWS V14.01,2013-09-02 04:28:00,
2013-09-01 23:30:00,80.9,72.6,29.87,NNE,13,0.0,4.0,76,0.00,,,0.00,VWS V14.01,2013-09-02 04:30:00,
2013-09-01 23:33:00,80.9,72.6,29.88,NNE,13,0.0,0.0,76,0.00,,,0.00,VWS V14.01,2013-09-02 04:33:00,
2013-09-01 23:38:00,80.7,72.8,29.87,NNE,13,0.0,1.0,77,0.00,,,0.00,VWS V14.01,2013-09-02 04:38:00,
2013-09-01 23:43:00,80.7,72.8,29.87,NNE,13,0.0,1.0,77,0.00,,,0.00,VWS V14.01,2013-09-02 04:43:00,
2013-09-01 23:48:00,80.5,72.6,29.87,NNE,13,0.0,1.0,77,0.00,,,0.00,VWS V14.01,2013-09-02 04:48:00,
2013-09-01 23:53:00,80.5,72.6,29.87,NNE,13,0.0,1.0,77,0.00,,,0.00,VWS V14.01,2013-09-02 04:53:00,
2013-09-01 23:58:00,80.3,72.4,29.88,NNE,13,0.0,1.0,77,0.00,,,0.00,VWS V14.01,2013-09-02 04:58:00,